Location: Lecco
(45.8566°N, 9.3977°E)
Time: 22:23:59
(UTC+02:00)

Courier 1B Rocket - Pass Details

Date: 29 August 2019
Orbit: 920 x 1202 km, 28.2° (Epoch: 15 September)

Event Time Altitude Azimuth Distance (km) Brightness Sun altitude
Rises 04:51:26 0° 244° (WSW) 3,826 - -17.8°
Reaches altitude 10° 04:55:06 10° 226° (SW) 2,926 - -17.2°
Exits shadow 04:58:13 17° 201° (SSW) 2,500 6.7 -16.8°
Maximum altitude 04:59:35 18° 187° (S) 2,465 6.7 -16.6°
Drops below altitude 10° 05:04:14 10° 149° (SSE) 3,045 7.6 -15.9°
Sets 05:08:10 0° 131° (SE) 4,045 8.5 -15.3°
